{"data":{"norad_id":48455,"epoch":"2026-05-24T13:17:19.730976Z","epoch_age_seconds":120408,"freshness":"FRESH","line1":"1 48455U 21040AD  26144.55370059  .00004159  00000+0  14565-3 0  9996","line2":"2 48455  53.1591 185.5373 0001280  80.3114 279.8032 15.31714294278298","mean_motion":15.31714294,"eccentricity":0.000128,"inclination_deg":53.1591,"raan_deg":185.5373,"arg_perigee_deg":80.3114,"mean_anomaly_deg":279.8032,"bstar":0.00014565,"rev_number":27829,"period_min":94.012310627428,"perigee_km":469.82073508542,"apogee_km":471.5740366882,"semimajor_km":6848.8343858868,"source":"CELESTRAK","updated_at":"2026-05-25T13:38:16.718387Z"}}